STARLINK-2640, 48438

Orbit data source: Space-Track

STARLINK-2640, 48438 is a payload satellite owned by SpaceX/Seattle (US) in LEO that was launched on Sun, 09 May 2021 UTC via an FALCON 9 launch vehicle from the Air Force Eastern Test Range (AFETR). Payload-class satellites include a variety of spacecraft equipped with specific instruments for various scientific and technological missions. These include communications satellites like Starlink; space stations such as the ISS; scientific satellites like the Hubble; Earth observation satellites from companies like Planet Labs, Umbra, and HawkEye 360; GPS; miniature CubeSats for education and research; and military/defense satellites.

Loading next visibility...
Identifier
48438, 2021-040L
Orbit
LEO
Country
Flag of USUS
Related business
Manufacturer
SpaceX/Seattle
Mission
Operational Commercial Communications
Bus & Motor
STARLINK, Unknown motor
Mass
260 kg wet, ~248 kg dry
Launch date (UTC)
2021-05-09 (5 years ago)
Launch vehicle
FALCON 9
Launch site
Air Force Eastern Test Range (AFETR)
Object type
Payload
Rocket body
Debris
Shape & HBR
Box + 1 Pan, 10.1 m
Radar Cross Section
13.562 m², Large (>1 m²)

Expand to show TLE details & history
Last TLE update: 2 days ago

TLE from 2 days ago
0 STARLINK-2640
1 48438U 21040L   26171.40888808  .00000633  00000-0  32170-4 0  9994
2 48438  53.1608  60.3379 0001330 101.0474 259.0677 15.31700801282413
Epoch: 2026-06-20T09:48Z
TLE epoch observation values (Epoch: 2026-06-20T09:48:47.930Z)
Latitude
-0.00001°
Longitude
4.51426°
Altitude
471.811 km
Speed
7.631 km/s
True Right ascension
04h 01m 21s
True Declination
0° 00' 00"
Sunlit
Object was in daylight at epoch
Visualization orbit readout
Latitude
Unknown
Longitude
Unknown
Altitude
Unknown
Speed
Unknown
Apparent Right ascension
Unknown
Apparent Declination
Unknown
Sunlit
N/A
Visualization observer readout
Local Sidereal Time
21:25:06
Azimuth
Unknown
Elevation
Unknown
Doppler factor
Unknown
Orbital elements
Apogee altitude
471.905 km
Perigee altitude
470.083 km
Semi-major axis
6,849.131 km
Eccentricity
0.00013
Inclination
53.1608°
RAAN
60.3379°
Arg. of periapsis
101.0474°
True anomaly
259.05274°
Mean anomaly
259.0677°
Eccentric anomaly
259.06022°
Mean motion
3.82904 °/min
Orbital period
94.02 mins
BSTAR
0.00003217
Loading maneuver chart data...
Computing Atmospheric mass density...

Documentation

Showing up to 5 results
|